GAOFEN-11 01

Last updated on Thu Nov 21 2024 00:02:27 GMT+0000 (Coordinated Universal Time)

1 43585U 18063A 24325.59758567 .00016997 00000+0 47866-3 0 9996 2 43585 97.2111 27.9102 0005952 269.6973 90.3589 15.36502284351720
UTC large
Height (km)
Speed (km/s)
/
Latitude / Longitude
Inclination (degrees)
Orbital Period (minutes)
Azimuth
Elevation
Range (km)
Doppler Factor

Next 0 passes for location: London (51.5072 / 0.1276)

Sorry there are no passes over London.